STARLINK-32769 (62602 NORAD) Tracking and Keplerian Element Data

This shows tracking and keplerian element data for the satellite.

Feedback or suggestion? Click here.




ElementValue
Catalog62602
NameSTARLINK-32769
Epoch Orbit462
Epoch Day35.16668981
Epoch Year2025
RAAN11.8994
Inclination43
Eccentricity0.0001459
Argument of Perigee275.559
Mean Anonmoly210.4157
Mean Motion15.50589907
Decay Rate-0.00044797
L11 62602U 25008R 25035.16668981 -.00044797 00000+0 -76183-3 0 9991
L22 62602 43.0000 11.8994 0001459 275.5590 210.4157 15.50589907 4620



Live tracking and technical data element details for STARLINK-32769 (NORAD 62602). STARLINK-32769 can be tracked NOW for your location showing map with azimuth and elevation plus other details from your city location.







IsCatalogInMostPopularTable: catalog: 62602, numindb: 206
Update: records affected: 1



GetName: 62602 STARLINK-32769

Hit Count: updated at: Mon, 17 Nov 2025 18:25:10 GMT